Find Starlink 34831

NORAD ID: 65345 Int'l Des: 2025-189 Owner: SPXS Country: US Constellation: starlink operational
LEOCIRCULAR

Live-Position

3D-Globus wird geladen...

Über Starlink 34831

Beschreibung wird geladen...

Nächste Überflüge

Passes for default location (London). Set your location on the main map for personalized predictions.

Höhenverlauf

Loading altitude history...

Zweizeiliger Elementsatz

1 65345U 25189Y 26106.48470747 .00010104 00000-0 35276-3 0 9996
2 65345 53.1587 31.1621 0001278 61.7413 298.3717 15.30202327 36908
Epoch: 16. Apr. 2026 • Age: 11 hours

Aktueller Status

Höhe 474.8 km
Geschwindigkeit 7.63 km/s
Subsatellitenpunkt 9.89°N, 148.48°W
Startdatum 27. Aug. 2025
Alter 0.6 years
Typ internet

Technische Details

Klassifizierung Payload
Masse 575.00 kg
Trockenmasse 530.00 kg
Gesamtmasse 575.00 kg
Länge 0.30 m
Durchmesser 4.10 m
Spannweite 29.00 m
Form Box + pan
Hersteller SPXS
Bus-Typ Starlink V2MO
Phasenstatus In Orbit
Besitzer/Staat SPXS/US

Most Searched